Frenchville, ME

11:04 AM EDT on July 23, 2017 (GMT -0400)
Northern Aroostook Regional

Weather History for KFVE - September, 2011

Change the Weather History Date:

Sunday, September 4, 2011

  Actual Average Record
Temperature  
Mean Temperature 60 °F 58 °F  
Max Temperature 69 °F 68 °F 86 °F (1999)
Min Temperature 51 °F 48 °F 41 °F (2000)
Degree Days  
Heating Degree Days 5    
Month to date heating degree days 17  
Since 1 July heating degree days 142  
Cooling Degree Days 0    
Month to date cooling degree days 0  
Year to date cooling degree days 82  
Growing Degree Days 10 (Base 50)    
Moisture  
Dew Point 59 °F    
Average Humidity 96    
Maximum Humidity 100    
Minimum Humidity 82    
Precipitation  
Precipitation 0.36 in 0.12 in 3.09 in (2010)
Month to date precipitation 0.92 0.51  
Year to date precipitation 32.09 22.57  
Sea Level Pressure  
Sea Level Pressure 29.82 in    
Wind  
Wind Speed 6 mph (SE)    
Max Wind Speed 16 mph    
Max Gust Speed 24 mph    
Visibility 4 miles    
Events Fog , Rain    
T = Trace of Precipitation, MM = Missing Value Source: NWS Daily Summary

Daily Weather History Graph

Daily Weather History Graph

Search for Another Location

Airport or City:

Trip Planner

Search our weather history database for the weather conditions in past years. The results will help you decide how hot, cold, wet, or windy it might be!

Date:

Astronomy

Sep. 04, 2011 Rise Set
Actual Time 5:55 AM EDT 7:07 PM EDT
Civil Twilight 5:24 AM EDT 7:39 PM EDT
Nautical Twilight 4:46 AM EDT 8:17 PM EDT
Astronomical Twilight 4:05 AM EDT 8:57 PM EDT
Moon 2:11 PM EDT (9/4) 10:50 PM EDT (9/4)
Length of Visible Light 14h 15m
Length of Day
13h 12m
Waxing Crescent, 49% of the Moon is Illuminated
Sep 4
Waxing Crescent
Sep 4
First Quarter
Sep 12
Full
Sep 20
Last Quarter
Sep 27
New

Hourly Weather History & Observations

Time (EDT) Temp. Dew Point Humidity Pressure Visibility Wind Dir Wind Speed Gust Speed Precip Events Conditions
12:53 AM 55.0 °F 54.0 °F 96% 29.91 in 9.0 mi North 3.5 mph - N/A   Clear
1:32 AM 55.4 °F 53.6 °F 94% 29.93 in 10.0 mi NNW 4.6 mph - N/A   Partly Cloudy
1:53 AM 55.0 °F 54.0 °F 96% 29.92 in 9.0 mi North 3.5 mph - N/A   Scattered Clouds
2:53 AM 54.0 °F 54.0 °F 100% 29.92 in 7.0 mi North 3.5 mph - N/A   Mostly Cloudy
3:53 AM 54.0 °F 53.1 °F 97% 29.92 in 5.0 mi Calm Calm - N/A   Mostly Cloudy
4:05 AM 53.6 °F 53.6 °F 100% 29.92 in 1.8 mi Calm Calm - N/A   Scattered Clouds
4:12 AM 53.6 °F 53.6 °F 100% 29.93 in 1.0 mi NNW 4.6 mph - N/A   Scattered Clouds
4:27 AM 51.8 °F 51.8 °F 100% 29.92 in 0.5 mi North 3.5 mph - N/A Fog Fog
4:40 AM 51.8 °F 51.8 °F 100% 29.92 in 0.2 mi North 4.6 mph - N/A Fog Fog
4:51 AM 53.6 °F 53.6 °F 100% 29.92 in 0.8 mi North 3.5 mph - N/A   Mist
4:53 AM 53.6 °F 53.6 °F 100% 29.92 in 0.8 mi NNW 3.5 mph - N/A   Mist
5:12 AM 51.8 °F 51.8 °F 100% 29.92 in 0.8 mi NNW 3.5 mph - N/A   Clear
5:27 AM 51.8 °F 51.8 °F 100% 29.93 in 1.5 mi NNW 5.8 mph - N/A   Partly Cloudy
5:29 AM 51.8 °F 51.8 °F 100% 29.93 in 3.0 mi NW 5.8 mph - N/A   Partly Cloudy
5:53 AM 51.1 °F 51.1 °F 100% 29.93 in 4.0 mi NNW 3.5 mph - N/A   Partly Cloudy
6:53 AM 53.1 °F 53.1 °F 100% 29.93 in 5.0 mi Calm Calm - N/A   Mostly Cloudy
7:53 AM 53.6 °F 51.8 °F 94% 29.93 in 10.0 mi SE 4.6 mph - N/A   Overcast
8:53 AM 55.9 °F 52.0 °F 87% 29.90 in 10.0 mi East 5.8 mph - N/A   Partly Cloudy
9:53 AM 59.0 °F 54.0 °F 83% 29.89 in 10.0 mi ESE 6.9 mph - N/A   Mostly Cloudy
10:23 AM 57.2 °F 55.4 °F 94% 29.89 in 6.0 mi East 3.5 mph - 0.01 in Rain Light Rain
10:53 AM 60.1 °F 55.9 °F 86% 29.88 in 10.0 mi ESE 8.1 mph - 0.01 in   Overcast
11:30 AM 60.8 °F 55.4 °F 82% 29.87 in 10.0 mi SE 5.8 mph - N/A   Overcast
11:53 AM 61.0 °F 55.9 °F 83% 29.84 in 10.0 mi SE 9.2 mph - N/A   Overcast
12:12 PM 59.0 °F 57.2 °F 94% 29.84 in 1.8 mi SE 5.8 mph - 0.05 in Rain Heavy Rain
12:14 PM 59.0 °F 57.2 °F 94% 29.83 in 1.2 mi East 6.9 mph - 0.08 in Rain Heavy Rain
12:31 PM 57.2 °F 57.2 °F 100% 29.82 in 0.8 mi ESE 6.9 mph - 0.27 in Rain Heavy Rain
12:41 PM 57.2 °F 57.2 °F 100% 29.82 in 1.8 mi ESE 9.2 mph - 0.28 in Rain Light Rain
12:48 PM 59.0 °F 57.2 °F 94% 29.82 in 8.0 mi ESE 8.1 mph - 0.28 in   Overcast
12:53 PM 59.0 °F 57.9 °F 96% 29.83 in 8.0 mi ESE 6.9 mph - 0.28 in   Overcast
1:40 PM 60.8 °F 60.8 °F 100% 29.80 in 7.0 mi SE 8.1 mph - N/A   Overcast
1:53 PM 62.1 °F 60.1 °F 93% 29.79 in 6.0 mi SE 9.2 mph - N/A   Overcast
2:53 PM 64.0 °F 63.0 °F 96% 29.77 in 4.0 mi SSE 9.2 mph - N/A   Overcast
3:37 PM 64.4 °F 64.4 °F 100% 29.76 in 1.8 mi SE 8.1 mph - 0.02 in Rain Rain
3:45 PM 66.2 °F 64.4 °F 94% 29.75 in 1.5 mi SE 8.1 mph - 0.04 in Rain Rain
3:53 PM 64.9 °F 64.9 °F 100% 29.74 in 1.2 mi SE 8.1 mph - 0.05 in Rain Rain
3:59 PM 66.2 °F 64.4 °F 94% 29.73 in 1.5 mi SE 9.2 mph - N/A Rain Light Rain
4:13 PM 66.2 °F 66.2 °F 100% 29.73 in 0.8 mi SE 9.2 mph - 0.01 in Rain Light Rain
4:16 PM 66.2 °F 66.2 °F 100% 29.73 in 0.5 mi SE 8.1 mph - 0.01 in Fog , Rain Light Rain
4:22 PM 66.2 °F 66.2 °F 100% 29.73 in 0.2 mi SE 6.9 mph - 0.01 in Fog Fog
4:37 PM 66.2 °F 66.2 °F 100% 29.74 in 1.5 mi SSE 6.9 mph - 0.01 in   Mostly Cloudy
4:42 PM 68.0 °F 66.2 °F 94% 29.74 in 1.8 mi SSE 6.9 mph - 0.01 in   Scattered Clouds
4:53 PM 68.0 °F 68.0 °F 100% 29.73 in 2.0 mi South 6.9 mph - 0.01 in   Mostly Cloudy
5:35 PM 69.8 °F 66.2 °F 88% 29.74 in 3.0 mi South 12.7 mph 20.7 mph N/A   Overcast
5:53 PM 68.0 °F 64.9 °F 90% 29.74 in 5.0 mi SSW 11.5 mph 21.9 mph N/A   Overcast
6:53 PM 66.0 °F 64.9 °F 96% 29.73 in 4.0 mi SSE 4.6 mph - N/A   Scattered Clouds
7:53 PM 66.0 °F 64.0 °F 93% 29.73 in 6.0 mi South 3.5 mph - N/A   Clear
8:53 PM 64.9 °F 64.0 °F 97% 29.73 in 6.0 mi South 5.8 mph - N/A   Clear
9:53 PM 64.9 °F 64.9 °F 100% 29.72 in 4.0 mi SSE 6.9 mph - N/A   Mostly Cloudy
10:34 PM 64.4 °F 64.4 °F 100% 29.72 in 3.0 mi SSE 9.2 mph - N/A   Overcast
10:46 PM 64.4 °F 64.4 °F 100% 29.72 in 3.0 mi SSE 6.9 mph - N/A   Overcast
10:53 PM 64.9 °F 64.9 °F 100% 29.71 in 2.5 mi SSE 10.4 mph - N/A   Overcast
11:01 PM 64.4 °F 64.4 °F 100% 29.72 in 3.0 mi SSE 9.2 mph - N/A   Overcast
11:16 PM 64.4 °F 64.4 °F 100% 29.71 in 5.0 mi SSE 10.4 mph - N/A   Overcast
11:53 PM 64.9 °F 64.0 °F 97% 29.71 in 6.0 mi SSW 6.9 mph 18.4 mph 0.00 in   Overcast